FW1404 Weather Reports


Display with metric or nautical units.
time (UTC)temp
F
wind
direction
speed
MPH
gust
MPH
rain 1hr
in
rain 24hr
in
rain mn
in
humidity
%
barometer
mb
20260507093231 47 53 4.0 7.0 0.00 0.31 0.31 90 1011.5
20260507092733 47 85 3.0 6.0 0.00 0.31 0.31 90 1011.5
20260507092256 47 43 5.0 7.0 0.00 0.31 0.31 90 1011.4
20260507092245 47 87 4.0 7.0 0.00 0.31 0.31 90 1011.4
20260507091519 47 36 4.0 7.0 0.00 0.31 0.31 90 1011.3
20260507090732 47 57 5.0 7.0 0.00 0.31 0.31 90 1011.3
20260507090510 47 22 5.0 7.0 0.00 0.31 0.31 90 1011.1
20260507085732 47 37 4.0 9.0 0.00 0.31 0.29 90 1011.1
20260507085231 47 37 5.0 9.0 0.00 0.31 0.29 90 1011.1
20260507084731 47 33 2.0 7.0 0.01 0.31 0.29 90 1011.1
20260507084230 47 58 5.0 6.0 0.01 0.31 0.29 90 1010.9
20260507083732 46 34 3.0 6.0 0.01 0.31 0.29 90 1010.8
20260507083513 46 12 4.0 6.0 0.01 0.31 0.29 90 1010.9
20260507082731 46 63 4.0 6.0 0.01 0.31 0.29 90 1010.9
20260507082230 46 56 2.0 7.0 0.01 0.31 0.29 90 1010.8
20260507081732 47 63 4.0 7.0 0.02 0.31 0.29 90 1010.8
20260507081230 46 26 5.0 7.0 0.02 0.31 0.29 90 1010.7
20260507080731 46 67 4.0 6.0 0.02 0.31 0.29 90 1010.7
20260507080229 46 71 3.0 5.0 0.02 0.31 0.31 90 1010.7
20260507075729 46 65 3.0 5.0 0.02 0.29 0.31 90 1010.5
20260507075227 46 63 4.0 6.0 0.02 0.29 0.31 90 1010.4
20260507074730 46 60 4.0 6.0 0.02 0.29 0.31 90 1010.3
20260507074524 46 56 3.0 6.0 0.02 0.29 0.31 90 1010.4
20260507074113 46 65 3.0 6.0 0.02 0.29 0.31 90 1010.3
20260507073803 46 37 3.0 6.0 0.02 0.29 0.31 90 1010.3
20260507072741 46 33 4.0 7.0 0.02 0.29 0.31 89 1010.2
20260507072229 46 36 3.0 10.0 0.02 0.29 0.30 90 1010.1
20260507071728 46 53 5.0 10.0 0.02 0.29 0.30 90 1010.0
20260507071229 46 50 3.0 6.0 0.02 0.30 0.30 90 1010.0
20260507070728 46 41 4.0 9.0 0.01 0.30 0.29 90 1009.9
20260507070514 46 41 6.0 9.0 0.01 0.30 0.29 90 1009.9
20260507065730 46 6 5.0 7.0 0.01 0.29 0.29 90 1009.8
20260507065228 46 25 5.0 7.0 0.01 0.29 0.29 90 1009.7
20260507064729 46 26 3.0 7.0 0.01 0.29 0.29 90 1009.5
20260507064230 46 60 5.0 9.0 0.01 0.29 0.29 90 1009.6
20260507063729 46 22 3.0 9.0 0.00 0.29 0.28 90 1009.4
20260507063228 46 46 5.0 7.0 0.00 0.29 0.28 90 1009.4
20260507062728 46 50 4.0 9.0 0.00 0.29 0.28 90 1009.5
20260507062512 46 10 6.0 11.0 0.00 0.29 0.28 90 1009.5
20260507062008 46 354 5.0 11.0 0.00 0.29 0.28 89 1009.5
20260507061227 46 19 5.0 6.0 0.00 0.29 0.28 89 1009.4
20260507060727 46 40 2.0 6.0 0.00 0.29 0.28 89 1009.3
20260507060225 47 34 4.0 6.0 0.00 0.29 0.28 89 1009.3
20260507055727 47 19 3.0 6.0 0.00 0.29 0.28 89 1009.2
20260507055226 47 25 4.0 7.0 0.00 0.29 0.28 89 1009.2
20260507054726 47 348 5.0 7.0 0.00 0.29 0.28 89 1009.2
20260507054225 47 18 5.0 7.0 0.00 0.29 0.28 90 1009.1
20260507053728 47 15 4.0 7.0 0.00 0.29 0.28 89 1008.9
20260507053518 47 12 4.0 9.0 0.00 0.29 0.28 89 1008.9
20260507052727 47 29 4.0 9.0 0.00 0.29 0.28 89 1008.9
20260507052225 47 39 4.0 7.0 0.00 0.29 0.28 89 1008.8
20260507051726 47 16 3.0 10.0 0.00 0.29 0.28 89 1008.9
20260507051227 47 12 5.0 10.0 0.00 0.29 0.28 89 1008.8
20260507050726 47 34 4.0 10.0 0.00 0.29 0.28 89 1008.7
20260507050223 47 58 4.0 9.0 0.00 0.29 0.28 89 1008.6
20260507045725 47 34 4.0 9.0 0.00 0.29 0.28 89 1008.5
20260507045225 47 46 4.0 6.0 0.00 0.29 0.28 89 1008.5
20260507045011 47 26 4.0 6.0 0.00 0.29 0.28 89 1008.5
20260507044225 47 63 4.0 5.0 0.00 0.29 0.28 89 1008.5
20260507043727 47 47 4.0 5.0 0.00 0.29 0.28 89 1008.4
20260507043222 47 68 4.0 7.0 0.00 0.29 0.28 89 1008.3
20260507042723 47 39 5.0 9.0 0.01 0.29 0.28 89 1008.3
20260507042223 47 64 6.0 9.0 0.01 0.29 0.28 89 1008.2
20260507041725 47 74 5.0 9.0 0.02 0.29 0.28 89 1008.3
20260507041224 47 56 3.0 10.0 0.02 0.29 0.28 89 1008.2
20260507040725 47 27 4.0 10.0 0.04 0.29 0.28 89 1008.0
20260507040223 47 47 4.0 10.0 0.06 0.29 0.28 89 1007.8
20260507035724 47 29 6.0 10.0 0.08 0.23 0.28 89 1007.8
20260507035221 47 34 4.0 9.0 0.09 0.23 0.28 89 1007.8
20260507034724 47 34 6.0 9.0 0.09 0.23 0.28 89 1007.8
20260507034223 47 34 4.0 7.0 0.11 0.23 0.28 88 1007.8
20260507033724 47 40 5.0 7.0 0.13 0.23 0.28 88 1007.8
20260507033223 47 20 4.0 6.0 0.14 0.23 0.28 88 1007.8
20260507033008 47 359 3.0 9.0 0.15 0.23 0.28 88 1007.9
20260507032515 47 6 3.0 9.0 0.16 0.23 0.28 88 1007.8
20260507032003 47 34 5.0 9.0 0.17 0.23 0.27 88 1007.7
20260507031222 47 47 5.0 7.0 0.17 0.23 0.26 88 1007.8
20260507030725 47 358 3.0 9.0 0.17 0.23 0.24 88 1007.8
20260507030510 47 9 4.0 11.0 0.17 0.23 0.22 88 1007.6
20260507025723 47 32 5.0 11.0 0.15 0.07 0.20 88 1007.5
20260507025459 47 41 6.0 11.0 0.15 0.07 0.19 88 1007.6
20260507025008 47 26 4.0 7.0 0.15 0.07 0.18 88 1007.8
20260507024222 47 27 5.0 7.0 0.14 0.07 0.17 87 1007.9
20260507023724 47 3 5.0 9.0 0.13 0.07 0.16 87 1008.0
20260507023222 47 9 5.0 9.0 0.13 0.07 0.14 87 1007.9
20260507022723 47 3 2.0 7.0 0.11 0.07 0.13 87 1007.9
20260507022501 47 9 6.0 10.0 0.11 0.07 0.12 87 1007.8
20260507021758 48 23 4.0 9.0 0.09 0.07 0.09 87 1007.7
20260507021748 47 10 7.0 10.0 0.09 0.07 0.10 87 1007.8
20260507021015 48 13 2.0 11.0 0.08 0.07 0.08 87 1007.7
20260507020508 48 39 7.0 11.0 0.06 0.07 0.06 87 1007.7
20260507015722 48 6 4.0 7.0 0.06 0.02 0.06 87 1007.7
20260507015221 48 25 5.0 7.0 0.05 0.02 0.05 87 1007.6
20260507014721 48 8 6.0 7.0 0.04 0.04 0.04 86 1007.5
20260507014220 48 10 4.0 7.0 0.03 0.06 0.03 86 1007.5
20260507013721 48 36 5.0 9.0 0.02 0.07 0.02 86 1007.4
20260507013221 48 40 7.0 9.0 0.02 0.09 0.02 86 1007.4
20260507012721 48 8 4.0 10.0 0.02 0.11 0.01 86 1007.5
20260507012219 49 10 4.0 10.0 0.01 0.13 0.01 85 1007.3
20260507011721 49 25 6.0 10.0 0.01 0.13 0.01 85 1007.3
20260507011219 49 32 6.0 12.0 0.00 0.13 0.00 85 1007.3
20260507010720 49 18 4.0 12.0 0.00 0.13 0.00 85 1007.2
20260507010219 49 358 8.0 11.0 0.00 0.13 0.00 85 1007.2
20260507005721 49 2 6.0 13.0 0.00 0.14 0.00 85 1007.1
20260507005219 49 18 8.0 13.0 0.00 0.15 0.00 85 1007.1
20260507005009 49 15 8.0 12.0 0.00 0.15 0.00 85 1007.0
20260507004219 49 30 5.0 11.0 0.00 0.15 0.00 84 1007.1
20260507003720 49 37 3.0 9.0 0.00 0.15 0.00 84 1006.8
20260507003510 50 30 7.0 10.0 0.00 0.17 0.00 84 1006.8
20260507002721 50 33 7.0 10.0 0.00 0.20 0.00 84 1006.9
20260507002501 50 32 5.0 9.0 0.00 0.22 0.00 84 1006.9
20260507001720 50 19 7.0 7.0 0.00 0.24 0.00 84 1007.0
20260507001219 50 25 5.0 7.0 0.00 0.24 0.00 84 1007.0
20260507000802 50 64 4.0 6.0 0.00 0.26 0.00 84 1007.0
20260507000745 50 46 3.0 5.0 0.00 0.25 0.00 84 1007.0
20260506235719 50 75 4.0 6.0 0.00 0.26 0.00 84 1007.0
20260506235218 50 73 2.0 6.0 0.00 0.26 0.00 84 1006.8
20260506234721 50 64 4.0 7.0 0.00 0.26 0.00 84 1006.6
20260506234217 50 54 5.0 9.0 0.00 0.27 0.00 84 1006.7
20260506233719 50 50 5.0 9.0 0.00 0.27 0.00 84 1006.6
20260506233217 50 19 6.0 9.0 0.00 0.28 0.00 84 1006.7
20260506232719 50 356 5.0 9.0 0.00 0.28 0.00 84 1006.8
20260506232509 50 19 4.0 10.0 0.00 0.28 0.00 83 1006.9
20260506232000 51 3 6.0 10.0 0.00 0.28 0.00 84 1006.9
20260506231216 51 19 5.0 10.0 0.00 0.28 0.00 83 1006.9
20260506230719 51 347 5.0 10.0 0.00 0.28 0.00 83 1006.9
20260506230453 51 16 4.0 7.0 0.00 0.28 0.00 83 1006.9
20260506225718 51 1 6.0 9.0 0.00 0.28 0.00 83 1006.7
20260506225217 51 37 4.0 9.0 0.00 0.28 0.00 83 1006.7
20260506225000 51 8 4.0 7.0 0.00 0.28 0.00 83 1006.7
20260506224451 51 6 6.0 7.0 0.00 0.28 0.00 83 1006.6
20260506223717 51 22 3.0 7.0 0.00 0.29 0.00 83 1006.5
20260506223217 51 54 5.0 7.0 0.00 0.29 0.00 83 1006.5
20260506222717 51 53 5.0 9.0 0.00 0.29 0.00 83 1006.5
20260506222216 51 56 4.0 9.0 0.00 0.29 0.00 83 1006.5
20260506221717 51 3 3.0 6.0 0.00 0.29 0.00 83 1006.5
20260506221459 52 32 2.0 10.0 0.00 0.29 0.00 83 1006.5
20260506220718 52 39 7.0 10.0 0.00 0.30 0.00 83 1006.5
20260506220218 52 41 3.0 9.0 0.00 0.32 0.00 83 1006.5
20260506215717 52 39 5.0 9.0 0.00 0.33 0.32 83 1006.5
20260506215215 52 29 3.0 7.0 0.00 0.33 0.32 83 1006.5
20260506214717 52 49 6.0 11.0 0.00 0.33 0.32 83 1006.4
20260506214216 52 26 6.0 11.0 0.00 0.33 0.32 83 1006.3
20260506213715 52 64 3.0 6.0 0.00 0.33 0.32 83 1006.4
20260506213215 52 25 4.0 9.0 0.00 0.33 0.32 82 1006.4
20260506212716 52 46 6.0 9.0 0.00 0.33 0.32 82 1006.4
20260506212215 52 44 6.0 7.0 0.00 0.33 0.32 82 1006.2
20260506211715 53 25 3.0 7.0 0.00 0.33 0.32 82 1006.2
20260506211501 53 68 4.0 6.0 0.00 0.33 0.32 82 1006.2
20260506210715 53 46 4.0 11.0 0.00 0.33 0.32 82 1006.3
20260506210212 53 22 6.0 11.0 0.00 0.33 0.32 82 1006.3
20260506205708 53 34 4.0 9.0 0.00 0.33 0.32 82 1006.1
20260506205205 53 29 6.0 12.0 0.00 0.33 0.32 82 1006.2
20260506204949 53 16 7.0 12.0 0.00 0.33 0.32 82 1006.0
20260506204203 53 18 4.0 10.0 0.00 0.33 0.32 82 1006.1
20260506203706 53 15 5.0 10.0 0.00 0.33 0.32 82 1006.1
20260506203257 54 51 6.0 10.0 0.00 0.33 0.32 82 1006.0
20260506203238 53 51 4.0 9.0 0.00 0.33 0.32 82 1006.0
20260506202205 54 49 4.0 10.0 0.00 0.33 0.32 82 1005.9
20260506201705 54 34 5.0 10.0 0.00 0.33 0.32 82 1005.9
20260506201453 54 41 7.0 10.0 0.00 0.33 0.32 82 1005.8
20260506200706 54 30 5.0 6.0 0.00 0.33 0.32 81 1006.0
20260506200206 54 49 2.0 6.0 0.00 0.33 0.32 81 1006.0
20260506195955 54 36 5.0 6.0 0.00 0.33 0.32 81 1006.0
20260506195203 54 20 4.0 5.0 0.00 0.33 0.32 81 1006.0
20260506194706 54 33 3.0 7.0 0.00 0.33 0.32 81 1005.8
20260506194205 54 33 5.0 9.0 0.00 0.33 0.32 81 1005.8
20260506193707 54 44 3.0 9.0 0.00 0.33 0.32 81 1005.8
20260506193204 54 27 4.0 11.0 0.00 0.33 0.32 81 1005.8
20260506192707 55 12 6.0 11.0 0.00 0.33 0.32 80 1005.6
20260506192202 55 8 6.0 12.0 0.00 0.33 0.32 80 1005.6
20260506191955 55 40 7.0 12.0 0.00 0.33 0.32 80 1005.6
20260506191204 55 6 6.0 10.0 0.00 0.33 0.32 80 1005.6
20260506190703 55 29 4.0 11.0 0.00 0.33 0.32 79 1005.7
20260506190205 55 27 7.0 11.0 0.00 0.33 0.32 79 1005.6
20260506185706 55 30 7.0 11.0 0.00 0.33 0.32 79 1005.5
20260506185448 56 18 9.0 11.0 0.00 0.33 0.32 79 1005.5
20260506184705 56 22 5.0 10.0 0.00 0.33 0.32 79 1005.5
20260506184205 56 15 7.0 11.0 0.00 0.33 0.32 78 1005.3
20260506183706 56 3 9.0 12.0 0.00 0.33 0.32 78 1005.3
20260506183205 57 32 6.0 12.0 0.00 0.33 0.32 77 1005.3
20260506182704 57 359 6.0 11.0 0.00 0.33 0.32 77 1005.1
20260506182202 57 44 8.0 11.0 0.00 0.33 0.32 77 1005.1
20260506181648 57 67 9.0 11.0 0.00 0.33 0.32 77 1005.2
20260506181145 58 20 5.0 11.0 0.00 0.33 0.32 77 1005.0
20260506180643 58 8 4.0 12.0 0.00 0.33 0.32 76 1004.9
20260506180143 58 46 8.0 12.0 0.00 0.33 0.32 76 1004.9
20260506175721 59 22 9.0 13.0 0.00 0.33 0.32 76 1004.7
20260506175702 58 1 5.0 13.0 0.00 0.33 0.32 76 1004.8
20260506174711 59 13 8.0 10.0 0.00 0.33 0.32 76 1004.9
20260506174659 59 26 7.0 11.0 0.00 0.33 0.32 76 1004.8
20260506173633 59 351 4.0 10.0 0.00 0.33 0.32 76 1004.9
20260506173132 59 36 6.0 10.0 0.00 0.33 0.32 76 1004.7
20260506172615 59 23 7.0 16.0 0.00 0.33 0.32 75 1004.7
20260506172401 59 356 8.0 16.0 0.00 0.33 0.32 75 1004.7
20260506171616 60 20 10.0 13.0 0.00 0.33 0.32 75 1004.7
20260506171112 60 9 8.0 12.0 0.00 0.33 0.32 75 1004.7
20260506170614 60 43 8.0 15.0 0.00 0.33 0.32 75 1004.7
20260506170111 60 32 11.0 15.0 0.00 0.33 0.32 75 1004.7
20260506165615 60 32 9.0 14.0 0.00 0.33 0.32 75 1004.7
20260506165112 61 13 9.0 14.0 0.00 0.33 0.32 75 1004.6
20260506164615 61 27 6.0 11.0 0.00 0.33 0.32 75 1004.7
20260506164112 61 12 7.0 14.0 0.00 0.33 0.32 75 1004.7
20260506163615 61 32 8.0 14.0 0.00 0.33 0.32 74 1004.6
20260506163349 62 26 3.0 13.0 0.00 0.33 0.32 74 1004.6
20260506162612 62 23 5.0 13.0 0.00 0.33 0.32 74 1004.5
20260506162122 62 10 7.0 14.0 0.00 0.33 0.32 74 1004.5
20260506161853 62 1 11.0 15.0 0.00 0.33 0.32 74 1004.5
20260506161123 63 325 5.0 15.0 0.00 0.33 0.32 74 1004.4
20260506160611 63 18 9.0 13.0 0.00 0.33 0.32 74 1004.5
20260506160314 64 18 11.0 17.0 0.00 0.33 0.32 73 1004.5
20260506160306 64 19 10.0 15.0 0.00 0.33 0.32 73 1004.6
20260506160234 63 344 9.0 17.0 0.00 0.33 0.32 73 1004.6
20260506154612 64 30 8.0 12.0 0.00 0.33 0.32 73 1004.6
20260506154347 64 6 6.0 11.0 0.00 0.33 0.32 73 1004.6
20260506153611 65 18 6.0 10.0 0.00 0.33 0.32 73 1004.6
20260506153109 65 20 6.0 14.0 0.00 0.33 0.32 72 1004.5
20260506152624 65 20 10.0 14.0 0.00 0.33 0.32 72 1004.5
20260506152109 65 339 7.0 13.0 0.00 0.33 0.32 71 1004.6
20260506151612 66 317 3.0 15.0 0.00 0.33 0.32 71 1004.7
20260506151110 66 27 5.0 15.0 0.00 0.33 0.32 71 1004.5
20260506150611 66 36 4.0 10.0 0.00 0.33 0.32 70 1004.5
20260506150107 67 297 4.0 6.0 0.00 0.33 0.32 70 1004.4
20260506145609 67 356 4.0 6.0 0.00 0.33 0.32 69 1004.5
20260506145108 67 314 4.0 6.0 0.00 0.33 0.32 69 1004.6
20260506144610 68 232 4.0 10.0 0.00 0.33 0.32 69 1004.5
20260506144107 68 229 5.0 10.0 0.00 0.33 0.32 68 1004.6
20260506143609 69 286 5.0 13.0 0.00 0.33 0.32 67 1004.5
20260506143107 69 289 6.0 13.0 0.00 0.33 0.32 68 1004.4
20260506142609 69 251 5.0 10.0 0.00 0.33 0.32 69 1004.5
20260506142109 68 269 6.0 14.0 0.00 0.33 0.32 67 1004.5
20260506141611 68 260 3.0 14.0 0.00 0.33 0.32 66 1004.4
20260506141109 69 248 5.0 12.0 0.00 0.33 0.32 65 1004.5
20260506140612 69 344 4.0 19.0 0.00 0.33 0.32 66 1004.4
20260506140112 69 296 5.0 20.0 0.00 0.33 0.32 64 1004.4
20260506135612 69 246 12.0 20.0 0.00 0.33 0.32 65 1004.4
20260506135108 69 279 11.0 17.0 0.00 0.33 0.32 66 1004.5
20260506134612 69 270 5.0 12.0 0.00 0.33 0.32 68 1004.5
20260506134113 68 234 7.0 13.0 0.00 0.33 0.32 68 1004.5
20260506133612 68 273 6.0 13.0 0.00 0.33 0.32 67 1004.5
20260506133347 68 296 7.0 12.0 0.00 0.33 0.32 68 1004.4
20260506132607 69 239 7.0 10.0 0.00 0.33 0.32 68 1004.4
20260506132106 69 280 5.0 13.0 0.00 0.33 0.32 68 1004.5
20260506131606 69 335 5.0 13.0 0.00 0.33 0.32 68 1004.4
20260506131356 69 276 7.0 13.0 0.00 0.33 0.32 66 1004.4
20260506130606 70 256 7.0 13.0 0.00 0.33 0.32 66 1004.4
20260506130106 70 239 8.0 13.0 0.00 0.33 0.32 66 1004.4
20260506125607 69 293 7.0 12.0 0.00 0.33 0.32 67 1004.4
20260506125106 69 313 4.0 17.0 0.00 0.33 0.32 67 1004.4
20260506124606 69 300 11.0 17.0 0.00 0.33 0.32 66 1004.3
20260506124106 69 253 7.0 16.0 0.00 0.33 0.32 65 1004.2
20260506123607 69 263 11.0 16.0 0.00 0.33 0.32 67 1004.3
20260506123106 69 228 9.0 18.0 0.00 0.33 0.32 69 1004.4
20260506122607 68 239 13.0 18.0 0.00 0.33 0.32 69 1004.4
20260506122107 68 248 8.0 14.0 0.00 0.33 0.32 68 1004.4
20260506121608 68 293 7.0 14.0 0.00 0.33 0.32 69 1004.4
20260506121130 68 272 9.0 18.0 0.00 0.33 0.32 63 1004.3
20260506121125 68 242 7.0 18.0 0.00 0.33 0.32 69 1004.5
20260506120104 68 276 9.0 14.0 0.00 0.33 0.32 64 1004.3
20260506115549 68 269 6.0 14.0 0.00 0.33 0.32 67 1004.1
20260506115037 67 189 7.0 15.0 0.00 0.33 0.32 68 1004.2
20260506114533 66 198 9.0 15.0 0.00 0.33 0.32 69 1004.2
20260506114034 66 279 7.0 12.0 0.00 0.33 0.32 70 1004.3
20260506113532 64 221 4.0 15.0 0.00 0.33 0.32 72 1004.3
20260506113033 64 252 9.0 15.0 0.00 0.33 0.32 74 1004.3
20260506112818 63 211 5.0 12.0 0.00 0.33 0.32 75 1004.4
20260506112813 63 270 9.0 15.0 0.00 0.33 0.32 75 1004.3
20260506111510 62 234 7.0 12.0 0.00 0.33 0.32 76 1004.3
20260506111058 62 242 9.0 13.0 0.00 0.33 0.32 75 1004.2
20260506111039 62 232 6.0 12.0 0.00 0.33 0.32 76 1004.3
20260506105956 62 253 7.0 12.0 0.00 0.33 0.32 74 1004.2
20260506105750 62 224 7.0 12.0 0.00 0.33 0.32 73 1004.2
20260506105232 0 0.0 0.0 0.00 0.33 0.32
20260506104732 62 259 7.0 9.0 0.00 0.33 0.32 73 1004.2
20260506104448 62 259 7.0 15.0 0.00 0.33 0.32 73 1004.2
20260506103722 62 269 7.0 15.0 0.00 0.33 0.32 74 1004.1
20260506103221 62 272 10.0 14.0 0.00 0.33 0.32 74 1004.1
20260506103008 63 222 11.0 14.0 0.00 0.33 0.32 74 1004.0
20260506102221 63 246 8.0 11.0 0.00 0.33 0.32 74 1004.1
20260506101958 63 276 8.0 13.0 0.00 0.33 0.32 73 1004.1
20260506101221 63 253 12.0 13.0 0.00 0.33 0.32 75 1004.0
20260506100721 63 260 6.0 10.0 0.00 0.33 0.32 75 1004.0
20260506100206 63 252 6.0 10.0 0.00 0.33 0.32 75 1003.9
20260506095703 63 258 8.0 14.0 0.00 0.33 0.32 75 1003.7
20260506095205 63 221 9.0 14.0 0.00 0.33 0.32 73 1003.7
20260506094705 63 225 8.0 14.0 0.00 0.33 0.32 72 1003.7
20260506094443 63 238 10.0 14.0 0.00 0.33 0.32 72 1003.5
20260506093704 64 260 9.0 14.0 0.00 0.33 0.32 72 1003.6